Location: Petruro
(41.0333°N, 14.7833°E)
Time: 08:55:16
(UTC+00:00)

DELTA 2 R/B (1) - Pass Details

Date: 01 November 2021
Orbit: 790 x 802 km, 39.6° (Epoch: 28 November)

Event Time Altitude Azimuth Distance (km) Brightness Sun altitude
Rises 17:26:57 0° 250° (WSW) 3,298 8.2 -17.5°
Reaches altitude 10° 17:29:27 10° 247° (WSW) 2,369 7.1 -18.0°
Maximum altitude 17:34:59 65° 166° (SSE) 878 3.7 -19.0°
Enters shadow 17:37:10 36° 99° (E) 1,236 4.0 -19.4°
